Location: Jihlava
(49.4000°N, 15.5830°E)
Time: 06:38:30
(UTC+01:00)

ISS - Visible Passes

Search period start: 11 December 2018 00:00
Search period end: 21 December 2018 00:00
Orbit: 401 x 408 km, 51.6° (Epoch: 12 December)

Date Brightness Start Highest point End Pass type
(mag) Time Alt. Az. Time Alt. Az. Time Alt. Az.
11 Dec -3.7 16:38:16 10° WNW 16:41:32 77° SSW 16:44:49 10° ESE visible
11 Dec -1.1 18:15:21 10° W 18:17:38 18° SW 18:19:44 11° S visible
12 Dec -1.8 17:22:46 10° W 17:25:37 28° SW 17:28:28 10° SSE visible
14 Dec -0.7 17:15:25 10° W 17:17:22 15° SW 17:19:20 10° S visible
